�������l�o���
Date,Time,MP-1(��Sv/h),MP-2(��Sv/h),MP-3(��Sv/h),MP-4(��Sv/h),MP-5(��Sv/h),MP-6(��Sv/h),MP-7(��Sv/h),MP-8(��Sv/h),����,����(m/s),���J
2023/11/09,00:00,0.519,0.779,0.486,0.985,0.705,0.314,0.568,0.524,�k�k��,5.8,��
2023/11/09,00:10,0.515,0.779,0.484,0.984,0.706,0.312,0.567,0.526,�k��,6.8,��
2023/11/09,00:20,0.518,0.780,0.485,0.981,0.705,0.312,0.569,0.525,�k��,6.3,��
2023/11/09,00:30,0.516,0.781,0.485,0.982,0.706,0.314,0.567,0.526,�k��,7.2,��
2023/11/09,00:40,0.516,0.781,0.486,0.984,0.706,0.312,0.567,0.525,�k��,6.3,��
2023/11/09,00:50,0.517,0.779,0.485,0.983,0.706,0.313,0.568,0.526,�k��,6.7,��
2023/11/09,01:00,0.515,0.779,0.484,0.983,0.708,0.313,0.567,0.526,�k��,6.1,��
2023/11/09,01:10,0.517,0.780,0.483,0.985,0.706,0.312,0.567,0.526,�k��,5.4,��
2023/11/09,01:20,0.516,0.781,0.485,0.984,0.706,0.313,0.567,0.527,�k��,5.4,��
2023/11/09,01:30,0.518,0.779,0.486,0.983,0.707,0.313,0.568,0.525,�k��,5.4,��
2023/11/09,01:40,0.518,0.781,0.486,0.984,0.706,0.314,0.567,0.526,�k��,5.4,��
2023/11/09,01:50,0.516,0.780,0.485,0.983,0.707,0.312,0.565,0.526,���k��,4.7,��
2023/11/09,02:00,0.517,0.779,0.485,0.982,0.707,0.314,0.568,0.526,�k��,4.6,��
2023/11/09,02:10,0.518,0.780,0.485,0.983,0.706,0.312,0.567,0.525,�k��,4.1,��
2023/11/09,02:20,0.515,0.781,0.485,0.981,0.705,0.315,0.567,0.527,�k��,4.4,��
2023/11/09,02:30,0.517,0.779,0.485,0.982,0.707,0.313,0.566,0.525,�k��,3.1,��
2023/11/09,02:40,0.515,0.779,0.484,0.982,0.707,0.314,0.568,0.527,�k��,3.3,��
2023/11/09,02:50,0.517,0.778,0.485,0.982,0.706,0.312,0.568,0.527,�k�k��,3.9,��
2023/11/09,03:00,0.516,0.781,0.486,0.985,0.707,0.313,0.569,0.525,�k�k��,4.4,��
2023/11/09,03:10,0.517,0.779,0.485,0.984,0.707,0.313,0.568,0.527,�k�k��,4.9,��
2023/11/09,03:20,0.518,0.779,0.485,0.983,0.706,0.313,0.568,0.526,�k�k��,3.4,��
2023/11/09,03:30,0.518,0.781,0.485,0.984,0.707,0.312,0.567,0.526,�k�k��,3.8,��
2023/11/09,03:40,0.516,0.779,0.484,0.983,0.705,0.313,0.567,0.526,�k�k��,3.7,��
2023/11/09,03:50,0.517,0.782,0.485,0.984,0.706,0.314,0.567,0.527,�k�k��,4.2,��
2023/11/09,04:00,0.516,0.781,0.486,0.984,0.707,0.313,0.567,0.526,�k�k��,4.2,��
2023/11/09,04:10,0.518,0.780,0.483,0.983,0.706,0.312,0.566,0.527,�k�k��,4.1,��
2023/11/09,04:20,0.516,0.778,0.485,0.984,0.706,0.312,0.566,0.526,�k�k��,4.8,��
2023/11/09,04:30,0.517,0.780,0.485,0.982,0.706,0.313,0.566,0.524,�k�k��,3.9,��
2023/11/09,04:40,0.516,0.780,0.485,0.985,0.708,0.313,0.567,0.525,�k�k��,4.4,��
2023/11/09,04:50,0.517,0.781,0.485,0.982,0.707,0.312,0.566,0.525,�k�k��,4.3,��
2023/11/09,05:00,0.518,0.779,0.484,0.983,0.708,0.314,0.568,0.525,�k�k��,4.2,��
2023/11/09,05:10,0.517,0.779,0.486,0.983,0.707,0.313,0.566,0.526,�k�k��,4.4,��
2023/11/09,05:20,0.516,0.779,0.485,0.986,0.706,0.313,0.567,0.526,�k��,4.3,��
2023/11/09,05:30,0.516,0.779,0.484,0.982,0.705,0.313,0.566,0.526,�k�k��,3.8,��
2023/11/09,05:40,0.517,0.779,0.485,0.983,0.708,0.313,0.566,0.525,�k�k��,4.4,��
2023/11/09,05:50,0.515,0.779,0.484,0.986,0.707,0.314,0.566,0.527,�k�k��,5.2,��
2023/11/09,06:00,0.516,0.781,0.484,0.983,0.706,0.313,0.568,0.527,�k�k��,4.9,��
2023/11/09,06:10,0.517,0.781,0.484,0.983,0.704,0.312,0.567,0.526,�k�k��,5.2,��
2023/11/09,06:20,0.517,0.780,0.483,0.984,0.707,0.314,0.565,0.525,�k�k��,5.4,��
2023/11/09,06:30,0.517,0.780,0.484,0.985,0.708,0.313,0.568,0.527,�k�k��,5.7,��
2023/11/09,06:40,0.515,0.779,0.485,0.983,0.708,0.314,0.568,0.527,�k�k��,5.5,��
2023/11/09,06:50,0.517,0.780,0.485,0.981,0.706,0.313,0.568,0.525,�k�k��,5.2,��
2023/11/09,07:00,0.517,0.780,0.483,0.984,0.707,0.314,0.567,0.526,�k�k��,5.6,��
2023/11/09,07:10,0.516,0.782,0.485,0.983,0.707,0.313,0.567,0.528,�k�k��,5.1,��
2023/11/09,07:20,0.518,0.781,0.485,0.985,0.707,0.312,0.567,0.526,�k�k��,5.6,��
2023/11/09,07:30,0.517,0.781,0.485,0.985,0.706,0.312,0.567,0.526,�k�k��,5.1,��
2023/11/09,07:40,0.516,0.782,0.484,0.984,0.705,0.313,0.567,0.524,�k�k��,6.0,��
2023/11/09,07:50,0.517,0.780,0.481,0.982,0.704,0.312,0.569,0.526,�k�k��,5.5,��
2023/11/09,08:00,0.516,0.779,0.480,0.985,0.705,0.312,0.567,0.527,�k�k��,5.5,��
2023/11/09,08:10,0.517,0.780,0.476,0.985,0.707,0.314,0.568,0.526,�k�k��,5.1,��
2023/11/09,08:20,0.517,0.783,0.479,0.984,0.706,0.313,0.569,0.526,�k�k��,5.0,��
2023/11/09,08:30,0.516,0.782,0.480,0.985,0.707,0.314,0.569,0.528,�k�k��,4.3,��
2023/11/09,08:40,0.516,0.781,0.483,0.984,0.709,0.313,0.567,0.527,�k�k��,3.4,��
2023/11/09,08:50,0.517,0.780,0.484,0.985,0.707,0.312,0.566,0.528,�k�k��,3.8,��
2023/11/09,09:00,0.518,0.779,0.484,0.985,0.705,0.312,0.565,0.526,�k�k��,2.6,��
2023/11/09,09:10,0.516,0.779,0.484,0.983,0.705,0.314,0.566,0.527,�k�k��,2.8,��
2023/11/09,09:20,0.518,0.778,0.486,0.983,0.708,0.315,0.567,0.528,�k,2.9,��
2023/11/09,09:30,0.517,0.777,0.487,0.984,0.708,0.314,0.566,0.527,�k,2.6,��
2023/11/09,09:40,0.517,0.778,0.486,0.984,0.707,0.315,0.566,0.528,�k,2.6,��
2023/11/09,09:50,0.516,0.782,0.487,0.984,0.706,0.312,0.567,0.527,�k,2.8,��
2023/11/09,10:00,0.518,0.778,0.485,0.983,0.705,0.313,0.566,0.527,�k�k��,2.6,��
2023/11/09,10:10,0.517,0.778,0.482,0.984,0.705,0.313,0.566,0.528,�k,1.7,��
2023/11/09,10:20,0.515,0.779,0.482,0.985,0.706,0.313,0.564,0.527,�k�k��,1.9,��
2023/11/09,10:30,0.515,0.780,0.481,0.983,0.705,0.312,0.567,0.529,�k,1.5,��
2023/11/09,10:40,0.516,0.781,0.481,0.982,0.707,0.312,0.566,0.528,�k��,1.9,��
2023/11/09,10:50,0.516,0.780,0.482,0.983,0.706,0.312,0.566,0.527,�k��,2.2,��
2023/11/09,11:00,0.516,0.780,0.481,0.982,0.706,0.311,0.566,0.527,�k��,2.3,��
2023/11/09,11:10,0.516,0.779,0.483,0.984,0.707,0.312,0.567,0.528,�k��,3.0,��
2023/11/09,11:20,0.516,0.779,0.485,0.985,0.706,0.312,0.567,0.528,�k��,2.9,��
2023/11/09,11:30,0.516,0.778,0.486,0.985,0.708,0.312,0.566,0.528,���k��,2.9,��
2023/11/09,11:40,0.516,0.779,0.486,0.985,0.707,0.312,0.566,0.528,���k��,2.5,��
2023/11/09,11:50,0.516,0.784,0.486,0.985,0.708,0.312,0.566,0.528,���k��,2.6,��
2023/11/09,12:00,0.517,0.783,0.485,0.984,0.706,0.314,0.566,0.529,���k��,2.3,��
2023/11/09,12:10,0.517,0.782,0.487,0.985,0.708,0.313,0.567,0.528,��,1.7,��
2023/11/09,12:20,0.517,0.783,0.486,0.985,0.709,0.314,0.565,0.525,���쓌,1.7,��
2023/11/09,12:30,0.516,0.783,0.486,0.984,0.706,0.316,0.567,0.526,���쓌,2.0,��
2023/11/09,12:40,0.518,0.782,0.487,0.985,0.708,0.314,0.567,0.526,���쓌,2.3,��
2023/11/09,12:50,0.516,0.784,0.486,0.987,0.707,0.314,0.566,0.526,���쓌,2.2,��
2023/11/09,13:00,0.518,0.782,0.487,0.986,0.709,0.314,0.566,0.525,���쓌,2.6,��
2023/11/09,13:10,0.517,0.780,0.486,0.985,0.709,0.314,0.567,0.526,�쓌,2.8,��
2023/11/09,13:20,0.517,0.781,0.488,0.984,0.708,0.312,0.566,0.526,�쓌,3.6,��
2023/11/09,13:30,0.517,0.782,0.487,0.986,0.707,0.313,0.566,0.525,�쓌,3.3,��
2023/11/09,13:40,0.518,0.782,0.487,0.984,0.709,0.313,0.566,0.526,��쓌,3.3,��
2023/11/09,13:50,0.518,0.780,0.487,0.986,0.710,0.312,0.566,0.526,��쓌,3.5,��
2023/11/09,14:00,0.517,0.783,0.488,0.988,0.710,0.314,0.568,0.527,��쓌,5.2,��
2023/11/09,14:10,0.517,0.782,0.487,0.988,0.709,0.314,0.566,0.526,��쓌,4.6,��
2023/11/09,14:20,0.519,0.783,0.487,0.985,0.710,0.313,0.565,0.526,��쓌,4.6,��
2023/11/09,14:30,0.516,0.782,0.488,0.987,0.710,0.313,0.564,0.526,��쓌,4.8,��
2023/11/09,14:40,0.518,0.784,0.488,0.985,0.710,0.314,0.565,0.525,��쓌,5.4,��
2023/11/09,14:50,0.516,0.782,0.488,0.985,0.709,0.313,0.565,0.526,��쓌,4.4,��
2023/11/09,15:00,0.516,0.783,0.488,0.986,0.709,0.313,0.566,0.526,��쓌,5.0,��
2023/11/09,15:10,0.517,0.780,0.489,0.987,0.709,0.312,0.567,0.526,��쓌,5.5,��
2023/11/09,15:20,0.519,0.784,0.487,0.988,0.709,0.313,0.566,0.524,��,4.9,��
2023/11/09,15:30,0.518,0.784,0.488,0.985,0.709,0.313,0.567,0.526,��쓌,6.6,��
2023/11/09,15:40,0.517,0.784,0.488,0.982,0.709,0.314,0.567,0.527,��,6.2,��
2023/11/09,15:50,0.518,0.784,0.489,0.981,0.708,0.313,0.566,0.528,��,7.1,��
2023/11/09,16:00,0.518,0.784,0.487,0.981,0.710,0.315,0.567,0.527,��,6.6,��
2023/11/09,16:10,0.518,0.784,0.488,0.984,0.710,0.315,0.566,0.529,��,5.8,��
2023/11/09,16:20,0.519,0.783,0.487,0.984,0.708,0.314,0.567,0.528,��,6.4,��
2023/11/09,16:30,0.517,0.786,0.488,0.985,0.709,0.314,0.567,0.528,��,7.5,��
2023/11/09,16:40,0.517,0.782,0.488,0.986,0.710,0.314,0.567,0.528,��,6.2,��
2023/11/09,16:50,0.517,0.787,0.489,0.986,0.710,0.315,0.566,0.528,��쐼,6.3,��
2023/11/09,17:00,0.516,0.787,0.490,0.989,0.710,0.314,0.568,0.529,��쐼,5.1,��
2023/11/09,17:10,0.519,0.785,0.490,0.983,0.711,0.316,0.567,0.527,��,6.0,��
2023/11/09,17:20,0.518,0.786,0.489,0.987,0.711,0.315,0.567,0.528,��쐼,6.4,��
2023/11/09,17:30,0.519,0.786,0.490,0.987,0.712,0.315,0.567,0.528,��쐼,5.7,��
2023/11/09,17:40,0.521,0.788,0.489,0.985,0.711,0.315,0.569,0.528,��쐼,5.8,��
2023/11/09,17:50,0.519,0.786,0.489,0.987,0.712,0.315,0.568,0.528,��쐼,5.6,��
2023/11/09,18:00,0.520,0.785,0.490,0.986,0.713,0.315,0.567,0.528,��,6.3,��
2023/11/09,18:10,0.519,0.788,0.490,0.984,0.709,0.316,0.568,0.530,��,5.8,��
2023/11/09,18:20,0.519,0.787,0.489,0.986,0.713,0.315,0.567,0.528,��쐼,5.4,��
2023/11/09,18:30,0.519,0.786,0.489,0.986,0.714,0.315,0.566,0.527,��쐼,5.1,��
2023/11/09,18:40,0.520,0.786,0.489,0.988,0.711,0.316,0.568,0.528,��쐼,4.8,��
2023/11/09,18:50,0.521,0.785,0.489,0.985,0.713,0.314,0.567,0.527,��쐼,4.4,��
2023/11/09,19:00,0.520,0.786,0.489,0.985,0.713,0.316,0.566,0.527,��쐼,4.3,��
2023/11/09,19:10,0.518,0.787,0.488,0.985,0.712,0.315,0.566,0.528,��쐼,4.3,��
2023/11/09,19:20,0.520,0.786,0.490,0.987,0.711,0.316,0.568,0.528,��쐼,4.4,��
2023/11/09,19:30,0.521,0.785,0.490,0.986,0.712,0.316,0.567,0.527,��쐼,4.9,��
2023/11/09,19:40,0.520,0.786,0.489,0.988,0.712,0.315,0.565,0.526,��쐼,4.5,��
2023/11/09,19:50,0.518,0.786,0.488,0.987,0.711,0.314,0.567,0.527,��쐼,5.2,��
2023/11/09,20:00,0.519,0.787,0.489,0.986,0.711,0.315,0.568,0.526,��쐼,5.5,��
2023/11/09,20:10,0.520,0.785,0.489,0.987,0.712,0.315,0.567,0.528,��쐼,6.0,��
2023/11/09,20:20,0.519,0.785,0.490,0.987,0.712,0.314,0.567,0.527,��쐼,5.9,��
2023/11/09,20:30,0.518,0.787,0.490,0.986,0.712,0.316,0.567,0.527,��쐼,5.3,��
2023/11/09,20:40,0.518,0.787,0.490,0.986,0.711,0.316,0.568,0.527,��쐼,5.1,��
2023/11/09,20:50,0.519,0.784,0.490,0.986,0.713,0.316,0.566,0.529,��쐼,4.6,��
2023/11/09,21:00,0.519,0.786,0.488,0.985,0.713,0.316,0.567,0.525,��쐼,4.7,��
2023/11/09,21:10,0.519,0.785,0.489,0.987,0.712,0.315,0.567,0.527,��쐼,4.9,��
2023/11/09,21:20,0.521,0.787,0.488,0.986,0.712,0.315,0.567,0.527,��쐼,5.6,��
2023/11/09,21:30,0.520,0.786,0.488,0.985,0.713,0.314,0.567,0.528,��쐼,5.8,��
2023/11/09,21:40,0.519,0.786,0.489,0.985,0.712,0.315,0.567,0.527,��쐼,5.6,��
2023/11/09,21:50,0.519,0.786,0.488,0.987,0.711,0.315,0.567,0.527,��쐼,5.7,��
2023/11/09,22:00,0.519,0.785,0.491,0.986,0.712,0.315,0.565,0.527,��쐼,5.0,��
2023/11/09,22:10,0.519,0.785,0.487,0.984,0.711,0.316,0.567,0.527,��쐼,5.0,��
2023/11/09,22:20,0.520,0.785,0.489,0.986,0.710,0.314,0.567,0.526,��쐼,6.1,��
2023/11/09,22:30,0.520,0.785,0.489,0.986,0.712,0.314,0.568,0.527,��쐼,6.2,��
2023/11/09,22:40,0.520,0.784,0.489,0.988,0.712,0.315,0.568,0.527,��쐼,5.8,��
2023/11/09,22:50,0.520,0.784,0.490,0.986,0.711,0.315,0.567,0.526,��쐼,5.9,��
2023/11/09,23:00,0.519,0.784,0.489,0.988,0.711,0.314,0.568,0.528,��쐼,5.7,��
2023/11/09,23:10,0.520,0.785,0.490,0.987,0.710,0.315,0.567,0.527,��쐼,6.4,��
2023/11/09,23:20,0.520,0.785,0.490,0.987,0.711,0.315,0.568,0.527,��쐼,5.1,��
2023/11/09,23:30,0.518,0.786,0.490,0.985,0.711,0.315,0.569,0.526,��쐼,5.4,��
2023/11/09,23:40,0.519,0.784,0.490,0.985,0.711,0.315,0.567,0.528,��쐼,5.0,��
2023/11/09,23:50,0.519,0.783,0.490,0.987,0.712,0.316,0.568,0.530,��쐼,5.2,��
